FW9619 Weather Reports


time (UTC)temp
F
wind
direction
speed
knots
gust
knots
rain 1hr
in
rain 24hr
in
rain mn
in
humidity
%
barometer
mb
20260510180051 72 22 3.5 11.3 0.00 0.00 0.00 35 1021.4
20260510174539 71 76 4.3 13.0 0.00 0.00 0.00 36 1021.4
20260510173035 70 51 7.0 14.8 0.00 0.00 0.00 37 1021.4
20260510171549 69 63 6.1 13.0 0.00 0.00 0.00 39 1021.4
20260510170034 69 36 9.6 14.8 0.00 0.00 0.00 36 1021.3
20260510164540 69 44 7.8 16.5 0.00 0.00 0.00 37 1021.2
20260510163040 69 32 6.1 14.8 0.00 0.00 0.00 39 1021.3
20260510161537 67 13 5.2 13.0 0.00 0.00 0.00 41 1021.1
20260510160046 67 360 8.7 14.8 0.00 0.00 0.00 41 1021.1
20260510154555 66 343 6.1 13.0 0.00 0.00 0.00 42 1020.9
20260510153046 65 30 6.1 14.8 0.00 0.00 0.00 44 1021.0
20260510151539 64 31 7.8 13.9 0.00 0.00 0.00 45 1021.3
20260510150038 64 38 8.7 15.6 0.00 0.00 0.00 47 1021.4
20260510144551 63 21 7.0 14.8 0.00 0.00 0.00 52 1021.3
20260510143034 63 5 7.8 14.8 0.00 0.00 0.00 53 1021.2
20260510141541 62 25 7.0 11.3 0.00 0.00 0.00 55 1021.1
20260510140041 61 346 3.5 10.4 0.00 0.00 0.00 58 1020.6
20260510134535 61 35 3.5 9.6 0.00 0.00 0.00 60 1020.4
20260510133035 61 36 3.5 11.3 0.00 0.00 0.00 61 1020.0
20260510131537 60 49 5.2 10.4 0.00 0.00 0.00 66 1020.1
20260510130037 60 48 7.8 12.2 0.00 0.00 0.00 68 1019.7
20260510124543 59 340 3.5 9.6 0.00 0.00 0.00 73 1019.5
20260510123039 58 340 3.5 7.8 0.00 0.00 0.00 77 1019.2
20260510121535 57 15 4.3 9.6 0.00 0.00 0.00 83 1019.2
20260510120037 56 43 2.6 7.8 0.00 0.00 0.00 90 1018.7
20260510114538 55 34 1.7 5.2 0.00 0.00 0.00 92 1018.4
20260510113038 55 29 0.0 2.6 0.00 0.00 0.00 92 1018.1
20260510111545 54 28 0.0 2.6 0.00 0.00 0.00 92 1018.0
20260510110038 54 28 0.9 2.6 0.00 0.00 0.00 92 1018.1
20260510104552 54 0 0.0 0.9 0.00 0.00 0.00 91 1018.0
20260510103039 54 0 0.0 2.6 0.00 0.00 0.00 91 1017.7
20260510101541 55 0 0.9 2.6 0.00 0.00 0.00 91 1017.4
20260510100050 55 0 0.0 0.0 0.00 0.00 0.00 91 1017.1
20260510094537 55 28 0.9 1.7 0.00 0.00 0.00 91 1017.1
20260510093044 55 0 0.0 2.6 0.00 0.00 0.00 91 1016.8
20260510091539 55 28 1.7 2.6 0.00 0.00 0.00 90 1016.5
20260510090042 56 0 0.0 2.6 0.00 0.00 0.00 90 1016.1
20260510084553 56 0 0.0 0.9 0.00 0.00 0.00 90 1016.2
20260510083046 56 0 0.0 0.9 0.00 0.00 0.00 90 1016.0
20260510081537 56 0 0.0 1.7 0.00 0.00 0.00 90 1015.8
20260510080037 56 22 0.0 1.7 0.00 0.00 0.00 89 1015.5
20260510074537 56 22 0.0 1.7 0.00 0.00 0.00 89 1015.4
20260510073048 56 0 0.0 0.9 0.00 0.00 0.00 89 1015.4
20260510071539 57 0 0.0 0.9 0.00 0.00 0.00 88 1015.5
20260510070039 57 0 0.0 1.7 0.00 0.00 0.00 88 1015.5
20260510064538 57 0 0.0 0.0 0.00 0.00 0.00 88 1015.3
20260510063035 58 0 0.0 0.0 0.00 0.00 0.00 87 1015.3
20260510061549 58 0 0.0 0.9 0.00 0.00 0.00 87 1015.2
20260510060044 58 0 0.0 1.7 0.00 0.00 0.00 87 1015.0
20260510054539 59 76 0.0 1.7 0.00 0.00 0.00 87 1015.1
20260510053036 59 0 0.0 0.0 0.00 0.00 0.00 87 1015.3
20260510051541 59 0 0.0 0.0 0.00 0.00 0.00 86 1015.2
20260510050039 59 0 0.0 0.0 0.00 0.00 0.00 85 1015.1
20260510044536 60 0 0.0 2.6 0.00 0.00 0.00 84 1014.7
20260510043042 60 0 0.0 1.7 0.00 0.00 0.00 84 1014.7
20260510041538 60 0 0.0 1.7 0.00 0.00 0.00 84 1014.5
20260510040039 60 0 0.0 7.0 0.00 0.00 0.00 84 1014.3
20260510034535 59 71 5.2 7.8 0.00 0.00 0.00 85 1014.2
20260510033037 60 0 0.0 0.0 0.00 0.00 0.00 85 1013.3
20260510031549 61 0 0.0 0.0 0.00 0.00 0.00 83 1013.2
20260510030038 62 0 0.0 0.0 0.00 0.00 0.00 82 1013.1
20260510024541 62 0 0.0 0.0 0.00 0.00 0.00 81 1013.0
20260510023041 63 0 0.0 0.0 0.00 0.00 0.00 79 1012.8
20260510021537 64 0 0.0 0.0 0.00 0.00 0.00 77 1012.3
20260510020039 66 0 0.0 0.0 0.00 0.00 0.00 74 1011.8
20260510014538 67 0 0.0 0.0 0.00 0.00 0.00 73 1011.8
20260510013038 69 0 0.0 0.0 0.00 0.00 0.00 70 1011.6
20260510011537 71 0 0.0 0.0 0.00 0.00 0.00 67 1011.4
20260510010034 73 0 0.0 0.9 0.00 0.00 0.00 60 1011.2
20260510004542 75 0 0.0 0.9 0.00 0.00 0.00 58 1011.1
20260510003039 76 0 0.0 1.7 0.00 0.00 0.00 56 1010.9
20260510001538 78 257 0.0 0.9 0.00 0.00 0.00 52 1010.9
20260510000036 79 0 0.0 0.9 0.00 0.00 0.00 47 1011.0
20260509234538 81 0 0.0 1.7 0.00 0.00 0.00 43 1011.0
20260509233036 82 257 0.0 1.7 0.00 0.00 0.00 38 1010.9
20260509231539 83 0 0.0 2.6 0.00 0.00 0.00 38 1010.7
20260509230035 84 234 0.9 6.1 0.00 0.00 0.00 31 1010.7
20260509224539 84 171 1.7 7.0 0.00 0.00 0.00 34 1010.6
20260509223039 84 221 3.5 7.8 0.00 0.00 0.00 31 1010.8
20260509221542 84 227 2.6 7.0 0.00 0.00 0.00 32 1010.8
20260509220041 85 213 2.6 9.6 0.00 0.00 0.00 31 1010.8
20260509214539 85 0 2.6 10.4 0.00 0.00 0.00 31 1010.8
20260509213038 86 0 1.7 3.5 0.00 0.00 0.00 29 1010.8
20260509211545 84 213 4.3 8.7 0.00 0.00 0.00 31 1010.9
20260509210039 87 186 1.7 7.0 0.00 0.00 0.00 32 1011.0
20260509204534 85 309 0.9 10.4 0.00 0.00 0.00 31 1011.2
20260509203040 85 215 3.5 12.2 0.00 0.00 0.00 35 1011.3
20260509201537 84 227 0.9 10.4 0.00 0.00 0.00 30 1011.5
20260509200044 84 240 4.3 13.0 0.00 0.00 0.00 32 1011.6
20260509194538 84 279 4.3 10.4 0.00 0.00 0.00 33 1011.5
20260509193037 83 254 5.2 13.0 0.00 0.00 0.00 34 1011.6
20260509191537 85 261 3.5 10.4 0.00 0.00 0.00 35 1011.6
20260509190042 84 137 2.6 13.0 0.00 0.00 0.00 38 1011.8
20260509184549 84 309 4.3 10.4 0.00 0.00 0.00 36 1011.7
20260509183039 83 271 4.3 10.4 0.00 0.00 0.00 35 1011.7
20260509181545 83 236 3.5 8.7 0.00 0.00 0.00 38 1011.8